Time,TemperatureF,DewpointF,PressureIn,WindDirection,WindDirectionDegrees,WindSpeedMPH,WindSpeedGustMPH,Humidity,HourlyPrecipIn,Conditions,Clouds,dailyrainin,SoftwareType,DateUTC
2013-02-11 00:02:00,37.0,20.0,-100.00,SSW,195,0.0,3.0,49,0.00,,,-99.99,,2013-02-11 05:02:00,
2013-02-11 00:12:00,38.0,21.0,-100.00,SE,125,0.0,2.0,50,0.00,,,-99.99,,2013-02-11 05:12:00,
2013-02-11 00:22:00,38.0,21.0,-100.00,SE,125,0.0,2.0,50,0.00,,,-99.99,,2013-02-11 05:22:00,
2013-02-11 00:32:00,38.0,21.0,-100.00,SE,125,0.0,2.0,50,0.00,,,-99.99,,2013-02-11 05:32:00,
2013-02-11 00:42:00,38.0,21.0,-100.00,South,170,0.0,3.0,51,0.00,,,-99.99,,2013-02-11 05:42:00,
2013-02-11 00:52:00,38.0,21.0,-100.00,South,170,0.0,3.0,51,0.00,,,-99.99,,2013-02-11 05:52:00,
2013-02-11 01:02:00,38.0,22.0,-100.00,SE,135,1.0,3.0,52,0.00,,,-99.99,,2013-02-11 06:02:00,
2013-02-11 01:12:00,38.0,22.0,-100.00,SSE,160,0.0,3.0,52,0.00,,,-99.99,,2013-02-11 06:12:00,
2013-02-11 01:22:00,38.0,22.0,-100.00,SSE,160,0.0,3.0,52,0.00,,,-99.99,,2013-02-11 06:22:00,
2013-02-11 01:32:00,38.0,23.0,-100.00,East,90,0.0,3.0,54,0.00,,,-99.99,,2013-02-11 06:32:00,
2013-02-11 01:42:00,37.0,26.0,-100.00,South,180,1.0,6.0,62,0.00,,,-99.99,,2013-02-11 06:42:00,
2013-02-11 01:52:00,37.0,26.0,-100.00,South,180,1.0,6.0,62,0.00,,,-99.99,,2013-02-11 06:52:00,
2013-02-11 02:01:00,37.0,26.0,-100.00,South,180,1.0,6.0,62,0.00,,,-99.99,,2013-02-11 07:01:00,
2013-02-11 02:11:00,37.0,29.0,-100.00,South,185,0.0,5.0,74,0.01,,,-99.99,,2013-02-11 07:11:00,
2013-02-11 02:22:00,37.0,29.0,-100.00,South,185,0.0,5.0,74,0.01,,,-99.99,,2013-02-11 07:22:00,
2013-02-11 02:32:00,37.0,31.0,-100.00,SSW,195,0.0,3.0,81,0.03,,,-99.99,,2013-02-11 07:32:00,
2013-02-11 02:42:00,36.0,32.0,-100.00,SSW,205,0.0,2.0,87,0.04,,,-99.99,,2013-02-11 07:42:00,
2013-02-11 02:52:00,36.0,35.0,-100.00,ESE,120,0.0,2.0,96,0.06,,,-99.99,,2013-02-11 07:52:00,
2013-02-11 03:01:00,36.0,35.0,-100.00,ESE,120,0.0,2.0,96,0.06,,,-99.99,,2013-02-11 08:01:00,
2013-02-11 03:11:00,36.0,35.0,-100.00,NNE,20,0.0,1.0,98,0.01,,,-99.99,,2013-02-11 08:11:00,
2013-02-11 03:22:00,36.0,35.0,-100.00,NNE,20,0.0,1.0,98,0.01,,,-99.99,,2013-02-11 08:22:00,
2013-02-11 03:32:00,36.0,35.0,-100.00,SW,225,0.0,3.0,99,0.06,,,-99.99,,2013-02-11 08:32:00,
2013-02-11 03:42:00,35.0,35.0,-100.00,West,270,0.0,1.0,99,0.07,,,-99.99,,2013-02-11 08:42:00,
2013-02-11 03:52:00,35.0,35.0,-100.00,West,270,0.0,1.0,99,0.07,,,-99.99,,2013-02-11 08:52:00,
2013-02-11 04:02:00,35.0,35.0,-100.00,ENE,60,0.0,2.0,99,0.01,,,-99.99,,2013-02-11 09:02:00,
2013-02-11 04:12:00,35.0,35.0,-100.00,South,185,0.0,2.0,99,0.01,,,-99.99,,2013-02-11 09:12:00,
2013-02-11 04:21:00,35.0,35.0,-100.00,South,185,0.0,2.0,99,0.01,,,-99.99,,2013-02-11 09:21:00,
2013-02-11 04:32:00,36.0,36.0,-100.00,SSE,155,0.0,1.0,99,0.00,,,-99.99,,2013-02-11 09:32:00,
2013-02-11 04:42:00,36.0,36.0,-100.00,WNW,285,0.0,3.0,99,0.01,,,-99.99,,2013-02-11 09:42:00,
2013-02-11 04:52:00,36.0,36.0,-100.00,South,180,1.0,6.0,99,0.06,,,-99.99,,2013-02-11 09:52:00,
2013-02-11 05:01:00,36.0,36.0,-100.00,South,180,1.0,6.0,99,0.06,,,-99.99,,2013-02-11 10:01:00,
2013-02-11 05:11:00,37.0,36.0,-100.00,SE,140,0.0,4.0,99,0.00,,,-99.99,,2013-02-11 10:11:00,
2013-02-11 05:21:00,37.0,36.0,-100.00,SE,140,0.0,4.0,99,0.00,,,-99.99,,2013-02-11 10:21:00,
2013-02-11 05:32:00,37.0,36.0,-100.00,ENE,60,0.0,4.0,99,0.00,,,-99.99,,2013-02-11 10:32:00,
2013-02-11 05:42:00,37.0,37.0,-100.00,NNW,345,1.0,4.0,99,0.18,,,-99.99,,2013-02-11 10:42:00,
2013-02-11 05:52:00,37.0,37.0,-100.00,NNW,345,1.0,4.0,99,0.18,,,-99.99,,2013-02-11 10:52:00,
2013-02-11 06:02:00,37.0,37.0,-100.00,West,265,2.0,6.0,99,0.00,,,-99.99,,2013-02-11 11:02:00,
2013-02-11 06:11:00,37.0,37.0,-100.00,South,190,1.0,4.0,99,0.00,,,-99.99,,2013-02-11 11:11:00,
2013-02-11 06:22:00,37.0,37.0,-100.00,South,190,1.0,4.0,99,0.00,,,-99.99,,2013-02-11 11:22:00,
2013-02-11 06:32:00,37.0,37.0,-100.00,SSW,200,1.0,4.0,99,0.00,,,-99.99,,2013-02-11 11:32:00,
2013-02-11 06:42:00,37.0,37.0,-100.00,SSW,200,0.0,4.0,99,0.00,,,-99.99,,2013-02-11 11:42:00,
2013-02-11 06:52:00,37.0,37.0,-100.00,SSW,200,0.0,4.0,99,0.00,,,-99.99,,2013-02-11 11:52:00,
2013-02-11 07:03:00,37.0,37.0,-100.00,SSE,165,1.0,6.0,99,0.00,,,-99.99,,2013-02-11 12:03:00,
2013-02-11 07:12:00,37.0,37.0,-100.00,South,190,1.0,6.0,99,0.00,,,-99.99,,2013-02-11 12:12:00,
2013-02-11 07:22:00,37.0,37.0,-100.00,South,190,1.0,6.0,99,0.00,,,-99.99,,2013-02-11 12:22:00,
2013-02-11 07:32:00,37.0,37.0,-100.00,SW,220,1.0,7.0,99,0.00,,,-99.99,,2013-02-11 12:32:00,
2013-02-11 07:42:00,38.0,37.0,-100.00,SSE,165,1.0,7.0,99,0.00,,,-99.99,,2013-02-11 12:42:00,
2013-02-11 07:52:00,38.0,37.0,-100.00,SSE,165,1.0,7.0,99,0.00,,,-99.99,,2013-02-11 12:52:00,
2013-02-11 08:02:00,38.0,38.0,-100.00,SSE,150,0.0,7.0,99,0.00,,,-99.99,,2013-02-11 13:02:00,
2013-02-11 08:12:00,38.0,38.0,-100.00,SSW,200,2.0,6.0,99,0.00,,,-99.99,,2013-02-11 13:12:00,
2013-02-11 08:22:00,38.0,38.0,-100.00,SSW,200,2.0,6.0,99,0.00,,,-99.99,,2013-02-11 13:22:00,
2013-02-11 08:33:00,38.0,38.0,-100.00,SE,125,1.0,7.0,99,0.00,,,-99.99,,2013-02-11 13:33:00,
2013-02-11 08:42:00,38.0,38.0,-100.00,SW,230,0.0,4.0,99,0.00,,,-99.99,,2013-02-11 13:42:00,
2013-02-11 08:52:00,38.0,38.0,-100.00,SW,230,0.0,4.0,99,0.00,,,-99.99,,2013-02-11 13:52:00,
2013-02-11 09:02:00,39.0,38.0,-100.00,SW,235,0.0,4.0,99,0.00,,,-99.99,,2013-02-11 14:02:00,
2013-02-11 09:12:00,39.0,39.0,-100.00,SSW,200,0.0,5.0,99,0.00,,,-99.99,,2013-02-11 14:12:00,
2013-02-11 09:22:00,39.0,39.0,-100.00,SSW,210,0.0,2.0,99,0.00,,,-99.99,,2013-02-11 14:22:00,
2013-02-11 09:33:00,39.0,39.0,-100.00,SSW,210,0.0,2.0,99,0.00,,,-99.99,,2013-02-11 14:33:00,
2013-02-11 09:42:00,40.0,40.0,-100.00,SSW,195,2.0,4.0,99,0.00,,,-99.99,,2013-02-11 14:42:00,
2013-02-11 09:52:00,40.0,40.0,-100.00,SSW,195,2.0,4.0,99,0.00,,,-99.99,,2013-02-11 14:52:00,
2013-02-11 10:02:00,40.0,40.0,-100.00,SSW,195,0.0,4.0,99,0.00,,,-99.99,,2013-02-11 15:02:00,
2013-02-11 10:11:00,41.0,41.0,-100.00,SE,135,1.0,4.0,99,0.00,,,-99.99,,2013-02-11 15:11:00,
2013-02-11 10:22:00,41.0,41.0,-100.00,WSW,240,0.0,5.0,99,0.00,,,-99.99,,2013-02-11 15:22:00,
2013-02-11 10:32:00,41.0,41.0,-100.00,WSW,240,0.0,5.0,99,0.00,,,-99.99,,2013-02-11 15:32:00,
2013-02-11 10:42:00,41.0,41.0,-100.00,South,175,1.0,6.0,99,0.00,,,-99.99,,2013-02-11 15:42:00,
2013-02-11 10:52:00,41.0,41.0,-100.00,South,175,1.0,6.0,99,0.00,,,-99.99,,2013-02-11 15:52:00,
2013-02-11 11:02:00,42.0,42.0,-100.00,WSW,255,1.0,6.0,99,0.00,,,-99.99,,2013-02-11 16:02:00,
2013-02-11 11:12:00,42.0,42.0,-100.00,SW,225,1.0,4.0,99,0.00,,,-99.99,,2013-02-11 16:12:00,
2013-02-11 11:22:00,42.0,42.0,-100.00,SW,225,1.0,4.0,99,0.00,,,-99.99,,2013-02-11 16:22:00,
2013-02-11 11:32:00,43.0,42.0,-100.00,SW,220,3.0,8.0,99,0.00,,,-99.99,,2013-02-11 16:32:00,
2013-02-11 11:42:00,43.0,43.0,-100.00,SW,215,1.0,7.0,99,0.00,,,-99.99,,2013-02-11 16:42:00,
2013-02-11 11:52:00,43.0,43.0,-100.00,SW,215,1.0,7.0,99,0.00,,,-99.99,,2013-02-11 16:52:00,
2013-02-11 12:02:00,44.0,43.0,-100.00,SW,215,4.0,8.0,99,0.00,,,-99.99,,2013-02-11 17:02:00,
2013-02-11 12:11:00,44.0,44.0,-100.00,SE,125,0.0,9.0,99,0.00,,,-99.99,,2013-02-11 17:11:00,
2013-02-11 12:22:00,44.0,44.0,-100.00,SE,125,0.0,9.0,99,0.00,,,-99.99,,2013-02-11 17:22:00,
2013-02-11 12:32:00,44.0,44.0,-100.00,SW,215,1.0,4.0,99,0.00,,,-99.99,,2013-02-11 17:32:00,
2013-02-11 12:42:00,45.0,45.0,-100.00,SW,215,0.0,6.0,99,0.00,,,-99.99,,2013-02-11 17:42:00,
2013-02-11 12:52:00,45.0,45.0,-100.00,SW,215,0.0,6.0,99,0.00,,,-99.99,,2013-02-11 17:52:00,
2013-02-11 13:02:00,45.0,44.0,-100.00,SSW,195,3.0,7.0,99,0.00,,,-99.99,,2013-02-11 18:02:00,
2013-02-11 13:11:00,45.0,45.0,-100.00,SSW,195,2.0,6.0,99,0.00,,,-99.99,,2013-02-11 18:11:00,
2013-02-11 13:22:00,45.0,45.0,-100.00,SSW,195,2.0,6.0,99,0.00,,,-99.99,,2013-02-11 18:22:00,
2013-02-11 13:32:00,46.0,45.0,-100.00,WSW,250,3.0,7.0,99,0.00,,,-99.99,,2013-02-11 18:32:00,
2013-02-11 13:42:00,46.0,46.0,-100.00,SSW,205,2.0,7.0,99,0.00,,,-99.99,,2013-02-11 18:42:00,
2013-02-11 13:53:00,46.0,46.0,-100.00,SSW,205,2.0,7.0,99,0.00,,,-99.99,,2013-02-11 18:53:00,
2013-02-11 14:02:00,47.0,47.0,-100.00,South,185,2.0,11.0,99,0.00,,,-99.99,,2013-02-11 19:02:00,
2013-02-11 14:12:00,48.0,47.0,-100.00,SSW,205,1.0,9.0,99,0.00,,,-99.99,,2013-02-11 19:12:00,
2013-02-11 14:22:00,48.0,47.0,-100.00,SSW,205,1.0,9.0,99,0.00,,,-99.99,,2013-02-11 19:22:00,
2013-02-11 14:32:00,48.0,48.0,-100.00,SW,220,2.0,7.0,99,0.00,,,-99.99,,2013-02-11 19:32:00,
2013-02-11 14:42:00,49.0,49.0,-100.00,South,170,2.0,9.0,99,0.00,,,-99.99,,2013-02-11 19:42:00,
2013-02-11 14:52:00,50.0,50.0,-100.00,WSW,240,1.0,5.0,99,0.00,,,-99.99,,2013-02-11 19:52:00,
2013-02-11 15:02:00,50.0,50.0,-100.00,WSW,240,1.0,5.0,99,0.00,,,-99.99,,2013-02-11 20:02:00,
2013-02-11 15:11:00,50.0,50.0,-100.00,SW,225,1.0,6.0,99,0.00,,,-99.99,,2013-02-11 20:11:00,
2013-02-11 15:22:00,51.0,51.0,-100.00,SW,235,1.0,10.0,99,0.00,,,-99.99,,2013-02-11 20:22:00,
2013-02-11 15:32:00,51.0,51.0,-100.00,SW,235,1.0,10.0,99,0.00,,,-99.99,,2013-02-11 20:32:00,
2013-02-11 15:42:00,52.0,52.0,-100.00,WNW,290,2.0,7.0,99,0.00,,,-99.99,,2013-02-11 20:42:00,
2013-02-11 15:52:00,52.0,52.0,-100.00,WNW,290,2.0,7.0,99,0.00,,,-99.99,,2013-02-11 20:52:00,
2013-02-11 16:02:00,54.0,53.0,-100.00,SW,235,2.0,7.0,99,0.00,,,-99.99,,2013-02-11 21:02:00,
2013-02-11 16:12:00,54.0,54.0,-100.00,WSW,245,1.0,5.0,98,0.00,,,-99.99,,2013-02-11 21:12:00,
2013-02-11 16:22:00,54.0,54.0,-100.00,WSW,245,1.0,5.0,98,0.00,,,-99.99,,2013-02-11 21:22:00,
2013-02-11 16:32:00,54.0,53.0,-100.00,SW,230,0.0,6.0,96,0.00,,,-99.99,,2013-02-11 21:32:00,
2013-02-11 16:42:00,54.0,53.0,-100.00,WNW,295,1.0,6.0,94,0.00,,,-99.99,,2013-02-11 21:42:00,
2013-02-11 16:52:00,54.0,53.0,-100.00,WNW,295,1.0,6.0,94,0.00,,,-99.99,,2013-02-11 21:52:00,
2013-02-11 17:02:00,54.0,53.0,-100.00,South,185,1.0,6.0,94,0.00,,,-99.99,,2013-02-11 22:02:00,
2013-02-11 17:12:00,54.0,53.0,-100.00,South,190,1.0,6.0,94,0.00,,,-99.99,,2013-02-11 22:12:00,
2013-02-11 17:22:00,54.0,53.0,-100.00,South,190,1.0,6.0,94,0.00,,,-99.99,,2013-02-11 22:22:00,
2013-02-11 17:32:00,53.0,52.0,-100.00,West,260,0.0,6.0,94,0.00,,,-99.99,,2013-02-11 22:32:00,
2013-02-11 17:42:00,53.0,52.0,-100.00,SW,235,1.0,7.0,95,0.00,,,-99.99,,2013-02-11 22:42:00,
2013-02-11 17:52:00,53.0,51.0,-100.00,SSW,200,0.0,4.0,95,0.00,,,-99.99,,2013-02-11 22:52:00,
2013-02-11 18:02:00,53.0,51.0,-100.00,SSW,200,0.0,4.0,95,0.00,,,-99.99,,2013-02-11 23:02:00,
2013-02-11 18:11:00,52.0,51.0,-100.00,WSW,240,0.0,6.0,96,0.00,,,-99.99,,2013-02-11 23:11:00,
2013-02-11 18:22:00,52.0,51.0,-100.00,WSW,240,0.0,6.0,96,0.00,,,-99.99,,2013-02-11 23:22:00,
2013-02-11 18:32:00,51.0,50.0,-100.00,SW,235,0.0,6.0,96,0.00,,,-99.99,,2013-02-11 23:32:00,
2013-02-11 18:42:00,51.0,50.0,-100.00,SW,225,0.0,5.0,98,0.00,,,-99.99,,2013-02-11 23:42:00,
2013-02-11 18:52:00,50.0,50.0,-100.00,WSW,240,0.0,4.0,99,0.00,,,-99.99,,2013-02-11 23:52:00,
2013-02-11 19:02:00,50.0,50.0,-100.00,WSW,240,0.0,4.0,99,0.00,,,-99.99,,2013-02-12 00:02:00,
2013-02-11 19:12:00,51.0,50.0,-100.00,WSW,240,1.0,5.0,99,0.00,,,-99.99,,2013-02-12 00:12:00,
2013-02-11 19:22:00,51.0,50.0,-100.00,WSW,240,1.0,5.0,99,0.00,,,-99.99,,2013-02-12 00:22:00,
2013-02-11 19:32:00,50.0,50.0,-100.00,SSW,210,1.0,4.0,99,0.00,,,-99.99,,2013-02-12 00:32:00,
2013-02-11 19:42:00,50.0,50.0,-100.00,SSW,210,0.0,5.0,99,0.00,,,-99.99,,2013-02-12 00:42:00,
2013-02-11 19:52:00,50.0,50.0,-100.00,SSW,210,0.0,5.0,99,0.00,,,-99.99,,2013-02-12 00:52:00,
2013-02-11 20:02:00,50.0,50.0,-100.00,West,280,1.0,4.0,99,0.00,,,-99.99,,2013-02-12 01:02:00,
2013-02-11 20:12:00,49.0,49.0,-100.00,SW,220,0.0,6.0,99,0.00,,,-99.99,,2013-02-12 01:12:00,
2013-02-11 20:22:00,49.0,49.0,-100.00,SW,220,0.0,6.0,99,0.00,,,-99.99,,2013-02-12 01:22:00,
2013-02-11 20:32:00,49.0,49.0,-100.00,SE,135,1.0,7.0,99,0.00,,,-99.99,,2013-02-12 01:32:00,
2013-02-11 20:42:00,48.0,48.0,-100.00,WNW,290,2.0,6.0,99,0.00,,,-99.99,,2013-02-12 01:42:00,
2013-02-11 20:52:00,48.0,48.0,-100.00,WNW,290,2.0,6.0,99,0.00,,,-99.99,,2013-02-12 01:52:00,
2013-02-11 21:02:00,46.0,46.0,-100.00,West,260,0.0,6.0,99,0.00,,,-99.99,,2013-02-12 02:02:00,
2013-02-11 21:12:00,45.0,45.0,-100.00,NW,315,0.0,4.0,99,0.00,,,-99.99,,2013-02-12 02:12:00,
2013-02-11 21:22:00,45.0,45.0,-100.00,NW,315,0.0,4.0,99,0.00,,,-99.99,,2013-02-12 02:22:00,
2013-02-11 21:32:00,45.0,44.0,-100.00,West,270,0.0,4.0,99,0.00,,,-99.99,,2013-02-12 02:32:00,
2013-02-11 21:42:00,43.0,43.0,-100.00,WNW,295,3.0,9.0,99,0.00,,,-99.99,,2013-02-12 02:42:00,
2013-02-11 21:52:00,43.0,43.0,-100.00,WNW,295,3.0,9.0,99,0.00,,,-99.99,,2013-02-12 02:52:00,
2013-02-11 22:02:00,53.0,33.0,-100.00,West,275,6.0,16.0,45,0.00,,,-99.99,,2013-02-12 03:02:00,
2013-02-11 22:11:00,55.0,28.0,-100.00,West,265,10.0,29.0,35,0.00,,,-99.99,,2013-02-12 03:11:00,
2013-02-11 22:21:00,55.0,28.0,-100.00,West,265,10.0,29.0,35,0.00,,,-99.99,,2013-02-12 03:21:00,
2013-02-11 22:32:00,55.0,27.0,-100.00,WNW,285,12.0,22.0,33,0.00,,,-99.99,,2013-02-12 03:32:00,
2013-02-11 22:42:00,53.0,28.0,-100.00,WNW,295,7.0,21.0,39,0.00,,,-99.99,,2013-02-12 03:42:00,
2013-02-11 22:52:00,52.0,31.0,-100.00,WNW,290,11.0,23.0,44,0.00,,,-99.99,,2013-02-12 03:52:00,
2013-02-11 23:01:00,52.0,31.0,-100.00,WNW,290,11.0,23.0,44,0.00,,,-99.99,,2013-02-12 04:01:00,
2013-02-11 23:11:00,51.0,31.0,-100.00,WNW,295,13.0,24.0,45,0.00,,,-99.99,,2013-02-12 04:11:00,
2013-02-11 23:21:00,51.0,31.0,-100.00,WNW,295,13.0,24.0,45,0.00,,,-99.99,,2013-02-12 04:21:00,
2013-02-11 23:32:00,51.0,31.0,-100.00,WNW,295,13.0,24.0,45,0.00,,,-99.99,,2013-02-12 04:32:00,
2013-02-11 23:42:00,49.0,31.0,-100.00,WNW,290,7.0,19.0,49,0.00,,,-99.99,,2013-02-12 04:42:00,
2013-02-11 23:51:00,49.0,32.0,-100.00,WNW,300,10.0,20.0,52,0.00,,,-99.99,,2013-02-12 04:51:00,